User: anonymous   Login
Location: Foligno
(42.9600°N, 12.7050°E)
Time: 03:42:59
(UTC+01:00)
Language:

Hubble Space Telescope - Orbit

View from above orbital plane
View from above orbital plane
View from above satellite
View from above satellite

Ground track
Ground track

The orbit data is extracted from the following two-line orbital elements,

1 20580U 90037B   19080.26282192  .00000520  00000-0  20790-4 0  9993
2 20580  28.4707  83.2676 0002598 232.6628 127.3723 15.09191453387360
Epoch (UTC): 21 March 2019 06:18:27
Eccentricity: 0.0002598
inclination: 28.4707°
perigee height: 537 km
apogee height: 540 km
right ascension of ascending node: 83.2676°
argument of perigee: 232.6628°
revolutions per day: 15.09191453
mean anomaly at epoch: 127.3723°
orbit number at epoch: 38736

The dashed part of the orbit path shows where the satellite is in the earth's shadow,  

DLR